Home   Weather   Sukkur   Past weeks

Flag for Pakistan Past Weather in Sukkur, Sindh, Pakistan — Yesterday and Last 2 Weeks

Now
86 °F

Haze.


Feels Like: 86 °F
Forecast: 54 / 84 °F
Wind: No wind

Location: Sukkur

Current Time: Dec 5, 2016 at 5:45:02 pm

Latest Report: Dec 5, 2016 at 5:00 pm


Visibility: 2 mi

Pressure: 29.92 "Hg

Humidity: 43%

Dew Point: 61 °F

Location of SukkurLocation

Past Weather in Sukkur — Graph

°F

Sukkur Temperature Yesterday

Maximum temperature yesterday: 88 °F (at 3:00 pm)
Minimum temperature yesterday: 55 °F (at 7:00 am)
Average temperature yesterday: 72 °F

High & Low Weather Summary for the Past Weeks

 TemperatureHumidityPressure
High90 °F (Nov 28, 3:00 pm)94% (Nov 21, 5:00 am)30.09 "Hg (Nov 21, 5:00 am)
Low55 °F (Nov 26, 8:00 am)25% (Nov 24, 2:00 pm)29.77 "Hg (Nov 20, 4:00 pm)
Average72 °F62%29.95 "Hg
* Reported Nov 20 4:00 pm — Dec 5 4:00 pm, Sukkur, Weather by CustomWeather, © 2016

Note: Actual official high and low records may vary slightly from our data, if they occured in-between our weather recording intervals... More about our weather records

Advertising

Sukkur Weather History for the Previous 24 Hours

Scroll right to see more
 ConditionsComfort  
Time TempWeatherWind HumidityBarometerVisibility
4:00 pm
Mon, Dec 5
86 °FHaze.No wind31%29.92 "Hg2 mi
3:00 pm86 °FHaze.7 mph31%29.95 "Hg2 mi
2:00 pm86 °FHaze.5 mph31%29.95 "Hg2 mi
1:00 pm82 °FHaze.5 mph37%29.98 "Hg2 mi
12:00 pm81 °FHaze.5 mph39%30.01 "Hg2 mi
11:00 am77 °FHaze.No wind51%30.04 "Hg2 mi
10:00 am68 °FHaze.No wind64%30.04 "Hg1 mi
9:00 am61 °FFog.No wind83%30.04 "Hg1 mi
8:00 am55 °FFog.No wind88%30.04 "Hg0 mi
7:00 am55 °FFog.No wind88%30.04 "Hg1 mi
6:00 am57 °FFog.No wind88%30.04 "Hg1 mi
5:00 am59 °FFog.No wind82%30.01 "Hg1 mi
2:00 am63 °FHaze.No wind77%30.04 "Hg2 mi
1:00 am64 °FHaze.No wind73%30.04 "Hg2 mi
12:00 am64 °FHaze.No wind73%30.07 "Hg2 mi
11:00 pm
Sun, Dec 4
66 °FHaze.No wind68%30.07 "Hg2 mi
10:00 pm66 °FHaze.No wind73%30.04 "Hg2 mi
9:00 pm68 °FHaze.No wind73%30.04 "Hg2 mi
8:00 pm70 °FHaze.No wind64%30.04 "Hg2 mi
7:00 pm73 °FHaze.No wind65%30.01 "Hg2 mi
6:00 pm79 °FHaze.No wind48%30.01 "Hg2 mi
5:00 pm86 °FHaze.No wind31%30.01 "Hg2 mi
Weather by CustomWeather, © 2016

See weather overviewHow to use our weather pages